[TLELIST] Archives

 

[TLELIST] Current TLEs

July 26th 2023 PDT

HST 1 20580U 90037B 23205.92764302 .00004829 00000-0 25212-3 0 9997 2 20580 28.4706 16.8313 0002908 67.1038 62.1782 15.13559894627180 ISS (ZARYA) 1 25544U 98067A 23206.28493277 .00013139 00000-0 23767-3 0 9990 2 25544 51.6396 139.7648 0000243 55.6182 304.4830 15.50013867407690 CXO 1 25867U 99040B 23207.62473364 .00000628 00000-0 00000-0 0 9995 2 25867 37.3827 191.6799 9050550 266.6716 0.5623 0.37816631 13320 ...Continue Reading

[TLELIST] Current TLEs

July 26th 2023 PDT

HST 1 20580U 90037B 23205.92764302 .00004829 00000-0 25212-3 0 9997 2 20580 28.4706 16.8313 0002908 67.1038 62.1782 15.13559894627180 ISS (ZARYA) 1 25544U 98067A 23206.28493277 .00013139 00000-0 23767-3 0 9990 2 25544 51.6396 139.7648 0000243 55.6182 304.4830 15.50013867407690 CXO 1 25867U 99040B 23207.62473364 .00000628 00000-0 00000-0 0 9995 2 25867 37.3827 191.6799 9050550 266.6716 0.5623 0.37816631 13320 ...Continue Reading

[TLELIST] Current TLEs

July 25th 2023 PDT

HST 1 20580U 90037B 23205.58406306 .00004664 00000-0 24317-3 0 9998 2 20580 28.4707 19.1184 0002907 63.2111 350.2435 15.13556184627131 ISS (ZARYA) 1 25544U 98067A 23205.57250000 .00012724 00000-0 23060-3 0 9991 2 25544 51.6417 143.2886 0000422 81.2371 260.8567 15.49994356407581 CXO 1 25867U 99040B 23207.62473364 .00000628 00000-0 00000-0 0 9995 2 25867 37.3827 191.6799 9050550 266.6716 0.5623 0.37816631 13320 ...Continue Reading

[TLELIST] Current TLEs

July 24th 2023 PDT

HST 1 20580U 90037B 23201.97463756 .00004784 00000-0 24992-3 0 9991 2 20580 28.4703 43.1452 0002741 28.4722 119.0256 15.13524419626855 ISS (ZARYA) 1 25544U 98067A 23203.12476910 .00011930 00000-0 21722-3 0 9991 2 25544 51.6411 155.4137 0000523 72.9869 282.0755 15.49927938407206 CXO 1 25867U 99040B 23204.98031003 .00000605 00000-0 00000+0 0 9995 2 25867 37.3941 191.9836 9053767 266.4267 0.5015 0.37817231 24474 ...Continue Reading

[TLELIST] Current TLEs

July 23rd 2023 PDT

HST 1 20580U 90037B 23201.97463756 .00004784 00000-0 24992-3 0 9991 2 20580 28.4703 43.1452 0002741 28.4722 119.0256 15.13524419626855 ISS (ZARYA) 1 25544U 98067A 23203.12476910 .00011930 00000-0 21722-3 0 9991 2 25544 51.6411 155.4137 0000523 72.9869 282.0755 15.49927938407206 CXO 1 25867U 99040B 23204.98031003 .00000605 00000-0 00000+0 0 9995 2 25867 37.3941 191.9836 9053767 266.4267 0.5015 0.37817231 24474 ...Continue Reading

[TLELIST] Current TLEs

July 22nd 2023 PDT

HST 1 20580U 90037B 23201.97463756 .00004784 00000-0 24992-3 0 9991 2 20580 28.4703 43.1452 0002741 28.4722 119.0256 15.13524419626855 ISS (ZARYA) 1 25544U 98067A 23203.12476910 .00011930 00000-0 21722-3 0 9991 2 25544 51.6411 155.4137 0000523 72.9869 282.0755 15.49927938407206 CXO 1 25867U 99040B 23204.98031003 .00000605 00000-0 00000+0 0 9995 2 25867 37.3941 191.9836 9053767 266.4267 0.5015 0.37817231 24474 ...Continue Reading

[TLELIST] Current TLEs

July 21st 2023 PDT

HST 1 20580U 90037B 23201.97463756 .00004784 00000-0 24992-3 0 9991 2 20580 28.4703 43.1452 0002741 28.4722 119.0256 15.13524419626855 ISS (ZARYA) 1 25544U 98067A 23202.37653101 .00012609 00000-0 22926-3 0 9997 2 25544 51.6411 159.1226 0000449 68.8075 68.5428 15.49909549407095 CXO 1 25867U 99040B 23202.33485362 .00000551 00000-0 00000+0 0 9993 2 25867 37.4065 192.3521 9056396 266.1190 0.3463 0.37814919 24465 ...Continue Reading

[TLELIST] Current TLEs

July 21st 2023 PDT

HST 1 20580U 90037B 23201.97463756 .00004784 00000-0 24992-3 0 9991 2 20580 28.4703 43.1452 0002741 28.4722 119.0256 15.13524419626855 ISS (ZARYA) 1 25544U 98067A 23202.37653101 .00012609 00000-0 22926-3 0 9997 2 25544 51.6411 159.1226 0000449 68.8075 68.5428 15.49909549407095 CXO 1 25867U 99040B 23202.33485362 .00000551 00000-0 00000+0 0 9993 2 25867 37.4065 192.3521 9056396 266.1190 0.3463 0.37814919 24465 ...Continue Reading

[TLELIST] Current TLEs

July 20th 2023 PDT

HST 1 20580U 90037B 23200.83977042 .00005085 00000-0 26635-3 0 9994 2 20580 28.4703 50.6987 0002722 16.5074 55.1750 15.13514689626675 ISS (ZARYA) 1 25544U 98067A 23201.19134634 .00010982 00000-0 20095-3 0 9998 2 25544 51.6392 164.9972 0000314 45.9683 314.1332 15.49879208406919 CXO 1 25867U 99040B 23202.33485362 .00000551 00000-0 00000+0 0 9993 2 25867 37.4065 192.3521 9056396 266.1190 0.3463 0.37814919 24465 ...Continue Reading

[TLELIST] Current TLEs

July 19th 2023 PDT

HST 1 20580U 90037B 23199.06975017 .00004822 00000-0 25217-3 0 9999 2 20580 28.4704 62.4798 0002643 358.0499 130.2779 15.13497418626401 ISS (ZARYA) 1 25544U 98067A 23200.37575991 .00012941 00000-0 23549-3 0 9996 2 25544 51.6408 169.0318 0000456 88.7800 37.7259 15.49860407406782 CXO 1 25867U 99040B 23202.33485362 .00000551 00000-0 00000+0 0 9993 2 25867 37.4065 192.3521 9056396 266.1190 0.3463 0.37814919 24465 ...Continue Reading
  • This mailing list is a public mailing list - anyone may join or leave, at any time.
  • This mailing list is announce-only.

International Space Station (ISS) / Hubble Space Telescope (HST) / Chandra X-Ray Observatory Orbital Data via EMAIL

Privacy Policy:

Private list